カタログに戻る

FENGYUN 1C DEB

運用中SSO
NORAD 36232·DEBRIS·🇨🇳 China

打ち上げ May 10, 1999 から Taiyuan Satellite Launch Center

Loading…

次のパス (今後24時間)

TLE

最新Source: Space-Track

元期: Sep 12, 2026, 04:01 UTC

1 36232U 99025DVH 26255.16772119  .00000322  00000-0  18468-3 0  9992
2 36232  98.7322 237.0395 0117712 330.1218  29.3269 14.12781739655960

AllMySatでFENGYUN 1C DEBをリアルタイム追跡

Download on the App Store